Time,TemperatureF,DewpointF,PressureIn,WindDirection,WindDirectionDegrees,WindSpeedMPH,WindSpeedGustMPH,Humidity,HourlyPrecipIn,Conditions,Clouds,dailyrainin,SoftwareType,DateUTC
2014-10-20 00:00:00,35.6,30.7,29.73,NW,321,2.0,5.0,82,0.00,,,0.00,meteohub,2014-10-20 04:00:00,
2014-10-20 00:05:00,35.6,30.7,29.73,WNW,290,0.0,5.0,82,0.00,,,0.00,meteohub,2014-10-20 04:05:00,
2014-10-20 00:10:00,35.4,30.6,29.73,NNE,22,0.0,8.0,82,0.00,,,0.00,meteohub,2014-10-20 04:10:00,
2014-10-20 00:15:00,35.4,30.6,29.73,NNE,14,4.0,8.0,82,0.00,,,0.00,meteohub,2014-10-20 04:15:00,
2014-10-20 00:20:00,35.2,30.4,29.73,WNW,301,0.0,6.0,82,0.00,,,0.00,meteohub,2014-10-20 04:20:00,
2014-10-20 00:25:00,35.2,30.4,29.73,North,0,2.0,6.0,82,0.00,,,0.00,meteohub,2014-10-20 04:25:00,
2014-10-20 00:30:00,35.2,30.6,29.73,NNW,344,4.0,6.0,83,0.00,,,0.00,meteohub,2014-10-20 04:30:00,
2014-10-20 00:35:00,35.2,30.6,29.73,NNW,331,1.0,7.0,83,0.00,,,0.00,meteohub,2014-10-20 04:35:00,
2014-10-20 00:41:00,35.2,30.4,29.73,NNW,333,1.0,7.0,82,0.00,,,0.00,meteohub,2014-10-20 04:41:00,
2014-10-20 00:46:00,35.4,30.6,29.73,North,5,2.0,6.0,82,0.00,,,0.00,meteohub,2014-10-20 04:46:00,
2014-10-20 00:51:00,35.4,30.6,29.73,WNW,300,0.0,6.0,82,0.00,,,0.00,meteohub,2014-10-20 04:51:00,
2014-10-20 00:56:00,35.4,30.6,29.73,NW,319,0.0,6.0,82,0.00,,,0.00,meteohub,2014-10-20 04:56:00,
2014-10-20 01:01:00,35.4,30.6,29.73,North,355,0.0,4.0,82,0.00,,,0.00,meteohub,2014-10-20 05:01:00,
2014-10-20 01:06:00,35.4,30.6,29.73,North,351,3.0,5.0,82,0.00,,,0.00,meteohub,2014-10-20 05:06:00,
2014-10-20 01:11:00,35.6,30.4,29.73,NNE,13,0.0,5.0,81,0.00,,,0.00,meteohub,2014-10-20 05:11:00,
2014-10-20 01:17:00,35.4,30.2,29.73,North,0,0.0,6.0,81,0.00,,,0.00,meteohub,2014-10-20 05:17:00,
2014-10-20 01:22:00,35.4,30.2,29.73,North,5,0.0,6.0,81,0.00,,,0.00,meteohub,2014-10-20 05:22:00,
2014-10-20 01:27:00,35.2,30.0,29.73,North,5,0.0,6.0,81,0.00,,,0.00,meteohub,2014-10-20 05:27:00,
2014-10-20 01:32:00,35.1,30.2,29.73,North,5,0.0,3.0,82,0.00,,,0.00,meteohub,2014-10-20 05:32:00,
2014-10-20 01:37:00,34.9,30.2,29.73,North,0,0.0,2.0,83,0.00,,,0.00,meteohub,2014-10-20 05:37:00,
2014-10-20 01:42:00,34.5,29.8,29.73,WNW,296,0.0,1.0,83,0.00,,,0.00,meteohub,2014-10-20 05:42:00,
2014-10-20 01:47:00,34.5,30.2,29.73,NNE,32,0.0,4.0,84,0.00,,,0.00,meteohub,2014-10-20 05:47:00,
2014-10-20 01:52:00,34.5,30.2,29.73,NNW,345,0.0,4.0,84,0.00,,,0.00,meteohub,2014-10-20 05:52:00,
2014-10-20 01:57:00,34.5,30.2,29.73,North,5,0.0,4.0,84,0.00,,,0.00,meteohub,2014-10-20 05:57:00,
2014-10-20 02:02:00,34.5,30.2,29.73,North,5,0.0,4.0,84,0.00,,,0.00,meteohub,2014-10-20 06:02:00,
2014-10-20 02:07:00,34.5,29.8,29.73,NNW,336,3.0,5.0,83,0.00,,,0.00,meteohub,2014-10-20 06:07:00,
2014-10-20 02:12:00,34.7,30.0,29.73,NNE,16,0.0,5.0,83,0.00,,,0.00,meteohub,2014-10-20 06:12:00,
2014-10-20 02:17:00,34.9,30.0,29.73,North,9,3.0,5.0,82,0.00,,,0.00,meteohub,2014-10-20 06:17:00,
2014-10-20 02:22:00,34.9,30.0,29.73,NNE,30,0.0,6.0,82,0.00,,,0.00,meteohub,2014-10-20 06:22:00,
2014-10-20 02:27:00,34.9,29.7,29.73,North,355,4.0,6.0,81,0.00,,,0.00,meteohub,2014-10-20 06:27:00,
2014-10-20 02:32:00,34.9,29.3,29.73,North,9,1.0,8.0,80,0.00,,,0.00,meteohub,2014-10-20 06:32:00,
2014-10-20 02:37:00,34.9,29.3,29.73,North,355,2.0,9.0,80,0.00,,,0.00,meteohub,2014-10-20 06:37:00,
2014-10-20 02:42:00,34.9,29.1,29.73,NNW,332,0.0,9.0,79,0.00,,,0.00,meteohub,2014-10-20 06:42:00,
2014-10-20 02:47:00,34.7,28.9,29.73,NNW,341,0.0,7.0,79,0.00,,,0.00,meteohub,2014-10-20 06:47:00,
2014-10-20 02:52:00,34.5,28.9,29.73,WSW,251,1.0,5.0,80,0.00,,,0.00,meteohub,2014-10-20 06:52:00,
2014-10-20 02:57:00,34.5,28.9,29.73,North,5,2.0,5.0,80,0.00,,,0.00,meteohub,2014-10-20 06:57:00,
2014-10-20 03:02:00,34.3,28.8,29.73,North,0,0.0,7.0,80,0.00,,,0.00,meteohub,2014-10-20 07:02:00,
2014-10-20 03:07:00,34.3,28.8,29.73,West,276,1.0,11.0,80,0.00,,,0.00,meteohub,2014-10-20 07:07:00,
2014-10-20 03:12:00,34.3,28.8,29.73,NW,312,1.0,11.0,80,0.00,,,0.00,meteohub,2014-10-20 07:12:00,
2014-10-20 03:17:00,34.3,29.1,29.73,NNE,13,0.0,11.0,81,0.00,,,0.00,meteohub,2014-10-20 07:17:00,
2014-10-20 03:22:00,34.2,28.9,29.73,North,0,4.0,7.0,81,0.00,,,0.00,meteohub,2014-10-20 07:22:00,
2014-10-20 03:27:00,34.2,28.9,29.73,NW,313,3.0,7.0,81,0.00,,,0.00,meteohub,2014-10-20 07:27:00,
2014-10-20 03:32:00,34.0,28.8,29.72,NNE,14,0.0,7.0,81,0.00,,,0.00,meteohub,2014-10-20 07:32:00,
2014-10-20 03:37:00,33.8,28.6,29.73,NNE,19,0.0,7.0,81,0.00,,,0.00,meteohub,2014-10-20 07:37:00,
2014-10-20 03:42:00,33.6,28.4,29.73,NW,310,0.0,7.0,81,0.00,,,0.00,meteohub,2014-10-20 07:42:00,
2014-10-20 03:47:00,33.8,28.9,29.73,NE,46,0.0,7.0,82,0.00,,,0.00,meteohub,2014-10-20 07:47:00,
2014-10-20 03:52:00,33.8,28.6,29.73,North,5,0.0,7.0,81,0.00,,,0.00,meteohub,2014-10-20 07:52:00,
2014-10-20 03:57:00,33.6,28.8,29.73,North,349,3.0,7.0,82,0.00,,,0.00,meteohub,2014-10-20 07:57:00,
2014-10-20 04:02:00,33.6,28.8,29.73,NNE,14,2.0,7.0,82,0.00,,,0.00,meteohub,2014-10-20 08:02:00,
2014-10-20 04:07:00,33.6,28.8,29.73,NNE,23,0.0,7.0,82,0.00,,,0.00,meteohub,2014-10-20 08:07:00,
2014-10-20 04:12:00,33.6,28.8,29.73,WSW,252,0.0,7.0,82,0.00,,,0.00,meteohub,2014-10-20 08:12:00,
2014-10-20 04:17:00,33.6,28.8,29.73,NNW,346,0.0,5.0,82,0.00,,,0.00,meteohub,2014-10-20 08:17:00,
2014-10-20 04:23:00,33.6,28.8,29.73,North,5,1.0,6.0,82,0.00,,,0.00,meteohub,2014-10-20 08:23:00,
2014-10-20 04:28:00,33.6,28.8,29.73,West,272,0.0,8.0,82,0.00,,,0.00,meteohub,2014-10-20 08:28:00,
2014-10-20 04:33:00,33.4,28.6,29.73,NW,308,5.0,8.0,82,0.00,,,0.00,meteohub,2014-10-20 08:33:00,
2014-10-20 04:38:00,33.4,28.6,29.73,NNW,333,0.0,6.0,82,0.00,,,0.00,meteohub,2014-10-20 08:38:00,
2014-10-20 04:43:00,33.4,28.2,29.73,WNW,295,2.0,7.0,81,0.00,,,0.00,meteohub,2014-10-20 08:43:00,
2014-10-20 04:48:00,33.4,28.2,29.73,NNE,32,0.0,11.0,81,0.00,,,0.00,meteohub,2014-10-20 08:48:00,
2014-10-20 04:53:00,33.3,28.0,29.73,North,5,5.0,11.0,81,0.00,,,0.00,meteohub,2014-10-20 08:53:00,
2014-10-20 04:58:00,33.3,28.0,29.73,West,261,2.0,11.0,81,0.00,,,0.00,meteohub,2014-10-20 08:58:00,
2014-10-20 05:04:00,33.3,28.0,29.73,NNE,16,0.0,10.0,81,0.00,,,0.00,meteohub,2014-10-20 09:04:00,
2014-10-20 05:09:00,33.3,28.0,29.73,NNE,24,2.0,15.0,81,0.00,,,0.00,meteohub,2014-10-20 09:09:00,
2014-10-20 05:14:00,33.3,28.0,29.73,NNW,332,2.0,15.0,81,0.00,,,0.00,meteohub,2014-10-20 09:14:00,
2014-10-20 05:19:00,33.1,27.9,29.73,NNW,327,1.0,15.0,81,0.00,,,0.00,meteohub,2014-10-20 09:19:00,
2014-10-20 05:24:00,33.1,27.9,29.73,NW,308,1.0,10.0,81,0.00,,,0.00,meteohub,2014-10-20 09:24:00,
2014-10-20 05:29:00,33.1,27.9,29.74,North,351,3.0,6.0,81,0.00,,,0.00,meteohub,2014-10-20 09:29:00,
2014-10-20 05:34:00,33.1,27.9,29.74,North,5,1.0,6.0,81,0.00,,,0.00,meteohub,2014-10-20 09:34:00,
2014-10-20 05:39:00,32.9,28.0,29.74,North,5,0.0,8.0,82,0.00,,,0.00,meteohub,2014-10-20 09:39:00,
2014-10-20 05:45:00,32.9,28.0,29.74,NE,40,0.0,8.0,82,0.00,,,0.00,meteohub,2014-10-20 09:45:00,
2014-10-20 05:50:00,32.7,27.9,29.74,WNW,292,0.0,6.0,82,0.00,,,0.00,meteohub,2014-10-20 09:50:00,
2014-10-20 05:55:00,32.7,27.9,29.74,North,10,2.0,6.0,82,0.00,,,0.00,meteohub,2014-10-20 09:55:00,
2014-10-20 06:00:00,32.7,27.9,29.74,NW,320,0.0,6.0,82,0.00,,,0.00,meteohub,2014-10-20 10:00:00,
2014-10-20 06:05:00,32.7,27.9,29.74,North,9,1.0,6.0,82,0.00,,,0.00,meteohub,2014-10-20 10:05:00,
2014-10-20 06:10:00,32.7,27.9,29.74,NNE,22,0.0,6.0,82,0.00,,,0.00,meteohub,2014-10-20 10:10:00,
2014-10-20 06:15:00,32.7,27.9,29.74,NW,306,0.0,5.0,82,0.00,,,0.00,meteohub,2014-10-20 10:15:00,
2014-10-20 06:20:00,32.5,28.0,29.74,NNW,336,3.0,5.0,83,0.00,,,0.00,meteohub,2014-10-20 10:20:00,
2014-10-20 06:26:00,32.5,27.7,29.74,NNE,15,2.0,5.0,82,0.00,,,0.00,meteohub,2014-10-20 10:26:00,
2014-10-20 06:31:00,32.5,27.7,29.74,NNE,24,1.0,5.0,82,0.00,,,0.00,meteohub,2014-10-20 10:31:00,
2014-10-20 06:36:00,32.7,27.5,29.75,NNW,348,0.0,8.0,81,0.00,,,0.00,meteohub,2014-10-20 10:36:00,
2014-10-20 06:41:00,32.7,27.5,29.75,WNW,283,5.0,8.0,81,0.00,,,0.00,meteohub,2014-10-20 10:41:00,
2014-10-20 06:46:00,32.7,27.5,29.75,NNW,333,3.0,8.0,81,0.00,,,0.00,meteohub,2014-10-20 10:46:00,
2014-10-20 06:51:00,32.7,27.5,29.75,NW,319,2.0,8.0,81,0.00,,,0.00,meteohub,2014-10-20 10:51:00,
2014-10-20 06:56:00,32.7,27.3,29.75,West,269,0.0,9.0,80,0.00,,,0.00,meteohub,2014-10-20 10:56:00,
2014-10-20 07:01:00,32.7,27.3,29.75,WSW,252,1.0,9.0,80,0.00,,,0.00,meteohub,2014-10-20 11:01:00,
2014-10-20 07:07:00,32.5,27.3,29.75,WSW,257,0.0,9.0,81,0.00,,,0.00,meteohub,2014-10-20 11:07:00,
2014-10-20 07:12:00,32.4,27.1,29.75,SW,222,0.0,5.0,81,0.00,,,0.00,meteohub,2014-10-20 11:12:00,
2014-10-20 07:17:00,32.2,27.3,29.76,SW,222,0.0,5.0,82,0.00,,,0.00,meteohub,2014-10-20 11:17:00,
2014-10-20 07:22:00,32.2,27.7,29.76,SW,222,0.0,3.0,83,0.00,,,0.00,meteohub,2014-10-20 11:22:00,
2014-10-20 07:27:00,32.2,27.7,29.76,SW,222,0.0,1.0,83,0.00,,,0.00,meteohub,2014-10-20 11:27:00,
2014-10-20 07:32:00,32.2,27.7,29.76,SW,223,0.0,0.0,83,0.00,,,0.00,meteohub,2014-10-20 11:32:00,
2014-10-20 07:37:00,32.4,27.9,29.76,ESE,121,0.0,3.0,83,0.00,,,0.00,meteohub,2014-10-20 11:37:00,
2014-10-20 07:42:00,32.7,27.9,29.76,SSW,204,0.0,4.0,82,0.00,,,0.00,meteohub,2014-10-20 11:42:00,
2014-10-20 07:47:00,33.1,28.2,29.76,NNW,340,3.0,4.0,82,0.00,,,0.00,meteohub,2014-10-20 11:47:00,
2014-10-20 07:52:00,33.6,28.4,29.77,ENE,74,0.0,5.0,81,0.00,,,0.00,meteohub,2014-10-20 11:52:00,
2014-10-20 07:57:00,34.0,28.4,29.77,North,355,0.0,5.0,80,0.00,,,0.00,meteohub,2014-10-20 11:57:00,
2014-10-20 08:02:00,34.3,28.8,29.77,SW,235,4.0,5.0,80,0.00,,,0.00,meteohub,2014-10-20 12:02:00,
2014-10-20 08:07:00,34.5,28.9,29.78,NW,314,0.0,5.0,80,0.00,,,0.00,meteohub,2014-10-20 12:07:00,
2014-10-20 08:12:00,34.5,28.9,29.78,West,267,4.0,7.0,80,0.00,,,0.00,meteohub,2014-10-20 12:12:00,
2014-10-20 08:17:00,34.9,29.3,29.78,SW,229,2.0,7.0,80,0.00,,,0.00,meteohub,2014-10-20 12:17:00,
2014-10-20 08:22:00,35.1,29.5,29.78,West,273,0.0,7.0,80,0.00,,,0.00,meteohub,2014-10-20 12:22:00,
2014-10-20 08:27:00,35.2,29.7,29.78,WSW,257,5.0,7.0,80,0.00,,,0.00,meteohub,2014-10-20 12:27:00,
2014-10-20 08:32:00,35.2,29.3,29.78,WNW,298,6.0,7.0,79,0.00,,,0.00,meteohub,2014-10-20 12:32:00,
2014-10-20 08:37:00,35.4,29.8,29.79,North,355,1.0,7.0,80,0.00,,,0.00,meteohub,2014-10-20 12:37:00,
2014-10-20 08:42:00,35.6,29.5,29.79,NNW,342,1.0,7.0,78,0.00,,,0.00,meteohub,2014-10-20 12:42:00,
2014-10-20 08:47:00,35.8,29.3,29.79,West,268,1.0,13.0,77,0.00,,,0.00,meteohub,2014-10-20 12:47:00,
2014-10-20 08:53:00,36.0,29.8,29.79,WSW,252,2.0,13.0,78,0.00,,,0.00,meteohub,2014-10-20 12:53:00,
2014-10-20 08:58:00,36.1,29.3,29.79,North,355,2.0,13.0,76,0.00,,,0.00,meteohub,2014-10-20 12:58:00,
2014-10-20 09:03:00,36.3,28.8,29.79,NNE,14,3.0,9.0,74,0.00,,,0.00,meteohub,2014-10-20 13:03:00,
2014-10-20 09:08:00,36.5,28.9,29.79,NNE,14,0.0,9.0,74,0.00,,,0.00,meteohub,2014-10-20 13:08:00,
2014-10-20 09:13:00,36.7,28.8,29.79,NNW,327,1.0,9.0,73,0.00,,,0.00,meteohub,2014-10-20 13:13:00,
2014-10-20 09:18:00,36.7,28.6,29.79,NNE,26,3.0,9.0,72,0.00,,,0.00,meteohub,2014-10-20 13:18:00,
2014-10-20 09:23:00,36.9,28.8,29.79,NNE,19,4.0,9.0,72,0.00,,,0.00,meteohub,2014-10-20 13:23:00,
2014-10-20 09:28:00,37.0,28.6,29.79,West,278,0.0,11.0,71,0.00,,,0.00,meteohub,2014-10-20 13:28:00,
2014-10-20 09:34:00,37.0,28.6,29.79,WNW,284,7.0,15.0,71,0.00,,,0.00,meteohub,2014-10-20 13:34:00,
2014-10-20 09:39:00,37.2,28.8,29.79,NNE,14,0.0,15.0,71,0.00,,,0.00,meteohub,2014-10-20 13:39:00,
2014-10-20 09:44:00,37.2,28.8,29.79,NNW,341,0.0,15.0,71,0.00,,,0.00,meteohub,2014-10-20 13:44:00,
2014-10-20 09:49:00,37.6,29.1,29.79,West,279,0.0,10.0,71,0.00,,,0.00,meteohub,2014-10-20 13:49:00,
2014-10-20 09:54:00,37.6,29.1,29.80,WNW,296,1.0,9.0,71,0.00,,,0.00,meteohub,2014-10-20 13:54:00,
2014-10-20 09:59:00,37.6,29.1,29.79,WSW,246,2.0,10.0,71,0.00,,,0.00,meteohub,2014-10-20 13:59:00,
2014-10-20 10:04:00,37.6,29.1,29.79,WSW,242,7.0,10.0,71,0.00,,,0.00,meteohub,2014-10-20 14:04:00,
2014-10-20 10:09:00,37.6,29.1,29.79,NW,320,2.0,11.0,71,0.00,,,0.00,meteohub,2014-10-20 14:09:00,
2014-10-20 10:14:00,37.4,28.9,29.79,NW,323,0.0,15.0,71,0.00,,,0.00,meteohub,2014-10-20 14:14:00,
2014-10-20 10:20:00,37.6,29.3,29.79,WNW,290,3.0,15.0,72,0.00,,,0.00,meteohub,2014-10-20 14:20:00,
2014-10-20 10:25:00,37.8,29.5,29.79,North,0,3.0,15.0,72,0.00,,,0.00,meteohub,2014-10-20 14:25:00,
2014-10-20 10:30:00,37.8,29.5,29.79,NNE,25,3.0,12.0,72,0.00,,,0.00,meteohub,2014-10-20 14:30:00,
2014-10-20 10:35:00,37.8,29.5,29.78,North,350,2.0,11.0,72,0.00,,,0.00,meteohub,2014-10-20 14:35:00,
2014-10-20 10:40:00,37.9,29.1,29.78,North,351,1.0,11.0,70,0.00,,,0.00,meteohub,2014-10-20 14:40:00,
2014-10-20 10:45:00,37.9,29.1,29.78,NNE,27,0.0,11.0,70,0.00,,,0.00,meteohub,2014-10-20 14:45:00,
2014-10-20 10:50:00,37.9,29.1,29.78,NW,308,6.0,11.0,70,0.00,,,0.00,meteohub,2014-10-20 14:50:00,
2014-10-20 10:55:00,38.1,29.1,29.79,North,0,5.0,12.0,70,0.00,,,0.00,meteohub,2014-10-20 14:55:00,
2014-10-20 11:01:00,38.1,28.9,29.78,NW,311,0.0,12.0,69,0.00,,,0.00,meteohub,2014-10-20 15:01:00,
2014-10-20 11:06:00,38.3,28.9,29.78,WSW,256,0.0,12.0,69,0.00,,,0.00,meteohub,2014-10-20 15:06:00,
2014-10-20 11:11:00,38.5,28.4,29.79,WNW,285,3.0,13.0,67,0.00,,,0.00,meteohub,2014-10-20 15:11:00,
2014-10-20 11:16:00,38.7,29.3,29.79,NNW,329,4.0,13.0,69,0.00,,,0.00,meteohub,2014-10-20 15:16:00,
2014-10-20 11:21:00,38.7,28.6,29.79,WNW,299,4.0,13.0,67,0.00,,,0.00,meteohub,2014-10-20 15:21:00,
2014-10-20 11:26:00,38.7,28.6,29.79,NW,304,1.0,15.0,67,0.00,,,0.00,meteohub,2014-10-20 15:26:00,
2014-10-20 11:31:00,38.8,28.4,29.79,ENE,78,4.0,15.0,66,0.00,,,0.00,meteohub,2014-10-20 15:31:00,
2014-10-20 11:36:00,39.0,27.9,29.79,WNW,298,3.0,19.0,64,0.00,,,0.00,meteohub,2014-10-20 15:36:00,
2014-10-20 11:42:00,39.6,28.4,29.79,West,273,8.0,19.0,64,0.00,,,0.00,meteohub,2014-10-20 15:42:00,
2014-10-20 11:47:00,39.9,28.4,29.78,WNW,298,10.0,19.0,63,0.00,,,0.00,meteohub,2014-10-20 15:47:00,
2014-10-20 11:52:00,40.6,27.9,29.78,NW,309,5.0,15.0,60,0.00,,,0.00,meteohub,2014-10-20 15:52:00,
2014-10-20 11:57:00,41.2,27.9,29.78,NE,41,2.0,15.0,59,0.00,,,0.00,meteohub,2014-10-20 15:57:00,
2014-10-20 12:02:00,41.5,28.2,29.78,North,10,5.0,15.0,59,0.00,,,0.00,meteohub,2014-10-20 16:02:00,
2014-10-20 12:07:00,41.5,27.9,29.78,NNE,20,0.0,13.0,58,0.00,,,0.00,meteohub,2014-10-20 16:07:00,
2014-10-20 12:12:00,41.7,28.4,29.78,NNE,14,8.0,13.0,59,0.00,,,0.00,meteohub,2014-10-20 16:12:00,
2014-10-20 12:17:00,42.1,27.1,29.78,NNE,23,4.0,13.0,55,0.00,,,0.00,meteohub,2014-10-20 16:17:00,
2014-10-20 12:23:00,42.1,26.6,29.78,West,274,5.0,20.0,54,0.00,,,0.00,meteohub,2014-10-20 16:23:00,
2014-10-20 12:28:00,41.7,27.7,29.78,West,281,7.0,20.0,57,0.00,,,0.00,meteohub,2014-10-20 16:28:00,
2014-10-20 12:33:00,41.7,27.7,29.78,NNW,345,9.0,20.0,57,0.00,,,0.00,meteohub,2014-10-20 16:33:00,
2014-10-20 12:38:00,42.1,27.5,29.78,NE,34,1.0,12.0,56,0.00,,,0.00,meteohub,2014-10-20 16:38:00,
2014-10-20 12:43:00,42.8,28.2,29.78,WNW,300,3.0,10.0,56,0.00,,,0.00,meteohub,2014-10-20 16:43:00,
2014-10-20 12:48:00,42.8,26.8,29.78,WNW,299,6.0,17.0,53,0.00,,,0.00,meteohub,2014-10-20 16:48:00,
2014-10-20 12:53:00,42.4,27.5,29.77,NE,41,2.0,17.0,55,0.00,,,0.00,meteohub,2014-10-20 16:53:00,
2014-10-20 12:58:00,42.4,27.0,29.77,West,262,8.0,17.0,54,0.00,,,0.00,meteohub,2014-10-20 16:58:00,
2014-10-20 13:04:00,42.6,27.5,29.77,West,269,4.0,14.0,55,0.00,,,0.00,meteohub,2014-10-20 17:04:00,
2014-10-20 13:09:00,43.0,27.5,29.77,North,351,1.0,14.0,54,0.00,,,0.00,meteohub,2014-10-20 17:09:00,
2014-10-20 13:14:00,43.0,27.0,29.77,West,277,4.0,17.0,53,0.00,,,0.00,meteohub,2014-10-20 17:14:00,
2014-10-20 13:19:00,43.3,27.9,29.77,West,281,9.0,17.0,54,0.00,,,0.00,meteohub,2014-10-20 17:19:00,
2014-10-20 13:24:00,43.2,27.7,29.77,WNW,291,2.0,17.0,54,0.00,,,0.00,meteohub,2014-10-20 17:24:00,
2014-10-20 13:29:00,43.0,26.6,29.77,WNW,302,4.0,17.0,52,0.00,,,0.00,meteohub,2014-10-20 17:29:00,
2014-10-20 13:34:00,42.4,26.6,29.77,NW,307,4.0,17.0,53,0.00,,,0.00,meteohub,2014-10-20 17:34:00,
2014-10-20 13:39:00,41.9,26.4,29.77,West,269,12.0,17.0,54,0.00,,,0.00,meteohub,2014-10-20 17:39:00,
2014-10-20 13:45:00,42.4,27.5,29.77,WNW,301,0.0,16.0,55,0.00,,,0.00,meteohub,2014-10-20 17:45:00,
2014-10-20 13:50:00,43.2,27.1,29.78,WSW,238,5.0,16.0,53,0.00,,,0.00,meteohub,2014-10-20 17:50:00,
2014-10-20 13:55:00,43.2,27.1,29.77,WNW,299,4.0,14.0,53,0.00,,,0.00,meteohub,2014-10-20 17:55:00,
2014-10-20 14:00:00,43.5,27.1,29.77,NW,322,3.0,14.0,52,0.00,,,0.00,meteohub,2014-10-20 18:00:00,
2014-10-20 14:05:00,43.0,27.0,29.78,WSW,257,12.0,15.0,53,0.00,,,0.00,meteohub,2014-10-20 18:05:00,
2014-10-20 14:10:00,42.6,27.1,29.77,North,355,4.0,15.0,54,0.00,,,0.00,meteohub,2014-10-20 18:10:00,
2014-10-20 14:15:00,42.6,26.6,29.77,NW,307,0.0,13.0,53,0.00,,,0.00,meteohub,2014-10-20 18:15:00,
2014-10-20 14:20:00,43.0,27.5,29.77,North,0,4.0,13.0,54,0.00,,,0.00,meteohub,2014-10-20 18:20:00,
2014-10-20 14:26:00,43.0,26.6,29.77,NNE,32,1.0,11.0,52,0.00,,,0.00,meteohub,2014-10-20 18:26:00,
2014-10-20 14:31:00,43.2,27.1,29.78,WSW,248,0.0,15.0,53,0.00,,,0.00,meteohub,2014-10-20 18:31:00,
2014-10-20 14:36:00,43.3,27.3,29.78,NW,311,6.0,15.0,53,0.00,,,0.00,meteohub,2014-10-20 18:36:00,
2014-10-20 14:41:00,43.2,27.1,29.78,West,281,3.0,20.0,53,0.00,,,0.00,meteohub,2014-10-20 18:41:00,
2014-10-20 14:46:00,43.0,27.0,29.78,NE,44,4.0,20.0,53,0.00,,,0.00,meteohub,2014-10-20 18:46:00,
2014-10-20 14:51:00,43.0,26.6,29.78,NE,38,3.0,20.0,52,0.00,,,0.00,meteohub,2014-10-20 18:51:00,
2014-10-20 14:56:00,43.5,27.1,29.77,ENE,58,0.0,14.0,52,0.00,,,0.00,meteohub,2014-10-20 18:56:00,
2014-10-20 15:02:00,43.5,27.1,29.78,WNW,302,4.0,14.0,52,0.00,,,0.00,meteohub,2014-10-20 19:02:00,
2014-10-20 15:07:00,43.7,27.1,29.78,NW,313,5.0,11.0,52,0.00,,,0.00,meteohub,2014-10-20 19:07:00,
2014-10-20 15:12:00,43.9,27.0,29.78,WSW,254,0.0,11.0,51,0.00,,,0.00,meteohub,2014-10-20 19:12:00,
2014-10-20 15:17:00,44.2,27.7,29.78,West,279,5.0,11.0,52,0.00,,,0.00,meteohub,2014-10-20 19:17:00,
2014-10-20 15:22:00,44.2,26.8,29.78,WNW,284,3.0,11.0,50,0.00,,,0.00,meteohub,2014-10-20 19:22:00,
2014-10-20 15:27:00,43.7,27.1,29.78,WNW,298,0.0,14.0,52,0.00,,,0.00,meteohub,2014-10-20 19:27:00,
2014-10-20 15:32:00,44.1,27.1,29.78,WNW,288,8.0,14.0,51,0.00,,,0.00,meteohub,2014-10-20 19:32:00,
2014-10-20 15:37:00,44.6,27.1,29.78,NW,317,2.0,15.0,50,0.00,,,0.00,meteohub,2014-10-20 19:37:00,
2014-10-20 15:43:00,44.8,26.8,29.78,North,0,2.0,15.0,49,0.00,,,0.00,meteohub,2014-10-20 19:43:00,
2014-10-20 15:48:00,44.4,27.0,29.78,NNE,31,2.0,15.0,50,0.00,,,0.00,meteohub,2014-10-20 19:48:00,
2014-10-20 15:53:00,44.1,26.6,29.78,WNW,293,7.0,9.0,50,0.00,,,0.00,meteohub,2014-10-20 19:53:00,
2014-10-20 15:58:00,43.7,26.8,29.78,West,269,1.0,11.0,51,0.00,,,0.00,meteohub,2014-10-20 19:58:00,
2014-10-20 16:03:00,44.1,27.1,29.78,SW,235,3.0,11.0,51,0.00,,,0.00,meteohub,2014-10-20 20:03:00,
2014-10-20 16:08:00,44.2,26.8,29.79,WNW,298,3.0,11.0,50,0.00,,,0.00,meteohub,2014-10-20 20:08:00,
2014-10-20 16:13:00,44.2,27.3,29.79,NW,306,5.0,14.0,51,0.00,,,0.00,meteohub,2014-10-20 20:13:00,
2014-10-20 16:18:00,44.2,27.3,29.79,West,272,5.0,14.0,51,0.00,,,0.00,meteohub,2014-10-20 20:18:00,
2014-10-20 16:24:00,44.2,27.3,29.79,WSW,257,2.0,14.0,51,0.00,,,0.00,meteohub,2014-10-20 20:24:00,
2014-10-20 16:29:00,44.2,27.3,29.79,NW,307,2.0,13.0,51,0.00,,,0.00,meteohub,2014-10-20 20:29:00,
2014-10-20 16:34:00,44.4,27.5,29.80,SW,228,3.0,13.0,51,0.00,,,0.00,meteohub,2014-10-20 20:34:00,
2014-10-20 16:39:00,44.1,28.0,29.80,WNW,302,6.0,12.0,53,0.00,,,0.00,meteohub,2014-10-20 20:39:00,
2014-10-20 16:44:00,43.7,27.7,29.80,WNW,288,0.0,12.0,53,0.00,,,0.00,meteohub,2014-10-20 20:44:00,
2014-10-20 16:49:00,43.3,27.3,29.80,North,355,7.0,13.0,53,0.00,,,0.00,meteohub,2014-10-20 20:49:00,
2014-10-20 16:54:00,43.2,27.7,29.80,West,275,4.0,13.0,54,0.00,,,0.00,meteohub,2014-10-20 20:54:00,
2014-10-20 16:59:00,43.0,27.9,29.80,North,355,1.0,12.0,55,0.00,,,0.00,meteohub,2014-10-20 20:59:00,
2014-10-20 17:05:00,42.8,27.7,29.81,SW,229,2.0,12.0,55,0.00,,,0.00,meteohub,2014-10-20 21:05:00,
2014-10-20 17:10:00,42.6,28.0,29.81,NNE,18,2.0,11.0,56,0.00,,,0.00,meteohub,2014-10-20 21:10:00,
2014-10-20 17:15:00,42.4,27.9,29.81,North,355,0.0,10.0,56,0.00,,,0.00,meteohub,2014-10-20 21:15:00,
2014-10-20 17:20:00,42.3,27.7,29.81,WNW,284,6.0,8.0,56,0.00,,,0.00,meteohub,2014-10-20 21:20:00,
2014-10-20 17:25:00,42.1,27.9,29.81,WNW,284,0.0,13.0,57,0.00,,,0.00,meteohub,2014-10-20 21:25:00,
2014-10-20 17:30:00,41.9,27.9,29.81,NNE,32,0.0,13.0,57,0.00,,,0.00,meteohub,2014-10-20 21:30:00,
2014-10-20 17:35:00,41.5,27.9,29.81,NW,321,0.0,7.0,58,0.00,,,0.00,meteohub,2014-10-20 21:35:00,
2014-10-20 17:40:00,41.4,28.0,29.82,NNE,16,4.0,4.0,59,0.00,,,0.00,meteohub,2014-10-20 21:40:00,
2014-10-20 17:46:00,41.2,28.4,29.82,SW,226,0.0,9.0,60,0.00,,,0.00,meteohub,2014-10-20 21:46:00,
2014-10-20 17:51:00,40.8,28.0,29.82,NNW,348,1.0,9.0,60,0.00,,,0.00,meteohub,2014-10-20 21:51:00,
2014-10-20 17:56:00,40.6,27.9,29.83,NNW,347,0.0,9.0,60,0.00,,,0.00,meteohub,2014-10-20 21:56:00,
2014-10-20 18:01:00,40.5,28.0,29.83,NW,307,0.0,7.0,61,0.00,,,0.00,meteohub,2014-10-20 22:01:00,
2014-10-20 18:06:00,40.1,28.0,29.83,NW,307,0.0,3.0,62,0.00,,,0.00,meteohub,2014-10-20 22:06:00,
2014-10-20 18:11:00,39.9,28.4,29.83,NW,304,0.0,1.0,63,0.00,,,0.00,meteohub,2014-10-20 22:11:00,
2014-10-20 18:16:00,39.6,28.8,29.83,NW,304,0.0,2.0,65,0.00,,,0.00,meteohub,2014-10-20 22:16:00,
2014-10-20 18:21:00,39.0,28.6,29.83,NW,304,0.0,2.0,66,0.00,,,0.00,meteohub,2014-10-20 22:21:00,
2014-10-20 18:27:00,38.5,28.8,29.83,NW,304,0.0,2.0,68,0.00,,,0.00,meteohub,2014-10-20 22:27:00,
2014-10-20 18:32:00,37.8,28.6,29.83,NW,304,0.0,0.0,69,0.00,,,0.00,meteohub,2014-10-20 22:32:00,
2014-10-20 18:37:00,37.0,28.6,29.83,NW,304,0.0,0.0,71,0.00,,,0.00,meteohub,2014-10-20 22:37:00,
2014-10-20 18:42:00,36.7,28.6,29.84,NW,304,0.0,0.0,72,0.00,,,0.00,meteohub,2014-10-20 22:42:00,
2014-10-20 18:47:00,36.0,28.2,29.84,NW,304,0.0,0.0,73,0.00,,,0.00,meteohub,2014-10-20 22:47:00,
2014-10-20 18:52:00,35.6,28.4,29.84,NW,304,0.0,0.0,75,0.00,,,0.00,meteohub,2014-10-20 22:52:00,
2014-10-20 18:57:00,35.2,28.4,29.85,NW,304,0.0,0.0,76,0.00,,,0.00,meteohub,2014-10-20 22:57:00,
2014-10-20 19:02:00,34.9,28.4,29.85,NW,304,0.0,0.0,77,0.00,,,0.00,meteohub,2014-10-20 23:02:00,
2014-10-20 19:07:00,34.5,28.4,29.85,NW,304,0.0,0.0,78,0.00,,,0.00,meteohub,2014-10-20 23:07:00,
2014-10-20 19:12:00,34.5,28.4,29.85,NW,304,0.0,0.0,78,0.00,,,0.00,meteohub,2014-10-20 23:12:00,
2014-10-20 19:17:00,34.3,28.6,29.86,NW,304,0.0,0.0,79,0.00,,,0.00,meteohub,2014-10-20 23:17:00,
2014-10-20 19:22:00,34.3,28.6,29.86,NW,304,0.0,0.0,79,0.00,,,0.00,meteohub,2014-10-20 23:22:00,
2014-10-20 19:27:00,34.3,28.8,29.86,NW,304,0.0,0.0,80,0.00,,,0.00,meteohub,2014-10-20 23:27:00,
2014-10-20 19:32:00,34.2,28.6,29.86,NW,304,0.0,0.0,80,0.00,,,0.00,meteohub,2014-10-20 23:32:00,
2014-10-20 19:37:00,34.2,28.9,29.86,NW,304,0.0,0.0,81,0.00,,,0.00,meteohub,2014-10-20 23:37:00,
2014-10-20 19:42:00,34.0,28.8,29.86,NW,304,0.0,0.0,81,0.00,,,0.00,meteohub,2014-10-20 23:42:00,
2014-10-20 19:48:00,33.4,28.6,29.86,NW,304,0.0,0.0,82,0.00,,,0.00,meteohub,2014-10-20 23:48:00,
2014-10-20 19:53:00,33.4,28.8,29.87,WNW,296,0.0,0.0,83,0.00,,,0.00,meteohub,2014-10-20 23:53:00,
2014-10-20 19:58:00,33.3,28.6,29.87,WNW,296,0.0,1.0,83,0.00,,,0.00,meteohub,2014-10-20 23:58:00,
2014-10-20 20:03:00,33.1,28.4,29.87,WNW,296,0.0,1.0,83,0.00,,,0.00,meteohub,2014-10-21 00:03:00,
2014-10-20 20:08:00,32.9,28.2,29.87,WNW,296,0.0,1.0,83,0.00,,,0.00,meteohub,2014-10-21 00:08:00,
2014-10-20 20:13:00,32.7,28.4,29.88,WNW,296,0.0,0.0,84,0.00,,,0.00,meteohub,2014-10-21 00:13:00,
2014-10-20 20:18:00,32.5,28.2,29.88,WNW,296,0.0,0.0,84,0.00,,,0.00,meteohub,2014-10-21 00:18:00,
2014-10-20 20:23:00,32.5,28.2,29.88,WNW,296,0.0,0.0,84,0.00,,,0.00,meteohub,2014-10-21 00:23:00,
2014-10-20 20:29:00,32.4,28.4,29.88,WNW,296,0.0,0.0,85,0.00,,,0.00,meteohub,2014-10-21 00:29:00,
2014-10-20 20:34:00,32.2,28.4,29.88,WNW,296,0.0,0.0,86,0.00,,,0.00,meteohub,2014-10-21 00:34:00,
2014-10-20 20:39:00,32.0,28.2,29.88,WNW,296,0.0,0.0,86,0.00,,,0.00,meteohub,2014-10-21 00:39:00,
2014-10-20 20:44:00,31.8,28.0,29.89,WNW,296,0.0,0.0,86,0.00,,,0.00,meteohub,2014-10-21 00:44:00,
2014-10-20 20:49:00,31.6,28.2,29.89,WNW,296,0.0,0.0,87,0.00,,,0.00,meteohub,2014-10-21 00:49:00,
2014-10-20 20:54:00,31.5,28.0,29.89,WNW,296,0.0,0.0,87,0.00,,,0.00,meteohub,2014-10-21 00:54:00,
2014-10-20 20:59:00,31.1,28.0,29.89,WNW,296,0.0,0.0,88,0.00,,,0.00,meteohub,2014-10-21 00:59:00,
2014-10-20 21:04:00,30.9,27.9,29.89,WNW,296,0.0,0.0,88,0.00,,,0.00,meteohub,2014-10-21 01:04:00,
2014-10-20 21:10:00,30.7,27.9,29.89,WNW,296,0.0,1.0,89,0.00,,,0.00,meteohub,2014-10-21 01:10:00,
2014-10-20 21:15:00,30.6,27.7,29.89,WNW,296,0.0,1.0,89,0.00,,,0.00,meteohub,2014-10-21 01:15:00,
2014-10-20 21:20:00,30.6,27.7,29.90,WNW,296,0.0,0.0,89,0.00,,,0.00,meteohub,2014-10-21 01:20:00,
2014-10-20 21:25:00,30.4,27.5,29.90,WNW,296,0.0,0.0,89,0.00,,,0.00,meteohub,2014-10-21 01:25:00,
2014-10-20 21:30:00,30.4,27.9,29.90,WNW,296,0.0,0.0,90,0.00,,,0.00,meteohub,2014-10-21 01:30:00,
2014-10-20 21:35:00,30.2,27.7,29.90,WNW,296,0.0,0.0,90,0.00,,,0.00,meteohub,2014-10-21 01:35:00,
2014-10-20 21:40:00,30.2,27.7,29.91,WNW,284,0.0,0.0,90,0.00,,,0.00,meteohub,2014-10-21 01:40:00,
2014-10-20 21:45:00,30.2,27.7,29.91,WNW,284,0.0,0.0,90,0.00,,,0.00,meteohub,2014-10-21 01:45:00,
2014-10-20 21:51:00,30.4,27.9,29.91,WNW,284,0.0,0.0,90,0.00,,,0.00,meteohub,2014-10-21 01:51:00,
2014-10-20 21:56:00,30.2,27.7,29.91,WNW,284,0.0,0.0,90,0.00,,,0.00,meteohub,2014-10-21 01:56:00,
2014-10-20 22:01:00,30.0,27.5,29.91,WNW,284,0.0,0.0,90,0.00,,,0.00,meteohub,2014-10-21 02:01:00,
2014-10-20 22:06:00,30.0,27.5,29.92,SSW,196,0.0,2.0,90,0.00,,,0.00,meteohub,2014-10-21 02:06:00,
2014-10-20 22:11:00,30.4,27.9,29.92,SSW,196,0.0,2.0,90,0.00,,,0.00,meteohub,2014-10-21 02:11:00,
2014-10-20 22:16:00,30.6,28.0,29.92,WSW,244,0.0,4.0,90,0.00,,,0.00,meteohub,2014-10-21 02:16:00,
2014-10-20 22:21:00,30.6,27.7,29.92,WSW,244,0.0,4.0,89,0.00,,,0.00,meteohub,2014-10-21 02:21:00,
2014-10-20 22:27:00,30.6,28.0,29.92,WSW,245,0.0,4.0,90,0.00,,,0.00,meteohub,2014-10-21 02:27:00,
2014-10-20 22:32:00,30.4,27.9,29.92,WSW,245,0.0,1.0,90,0.00,,,0.00,meteohub,2014-10-21 02:32:00,
2014-10-20 22:37:00,30.2,27.7,29.92,WSW,245,0.0,1.0,90,0.00,,,0.00,meteohub,2014-10-21 02:37:00,
2014-10-20 22:42:00,30.0,27.5,29.92,WSW,245,0.0,1.0,90,0.00,,,0.00,meteohub,2014-10-21 02:42:00,
2014-10-20 22:47:00,29.8,27.3,29.92,WSW,245,0.0,0.0,90,0.00,,,0.00,meteohub,2014-10-21 02:47:00,
2014-10-20 22:52:00,29.7,27.1,29.92,WSW,245,0.0,0.0,90,0.00,,,0.00,meteohub,2014-10-21 02:52:00,
2014-10-20 22:57:00,29.5,27.1,29.92,WSW,245,0.0,0.0,91,0.00,,,0.00,meteohub,2014-10-21 02:57:00,